When you browse on this site, cookies collect data to enhance your experience and personalize the content and advertising you see.
Visit our Privacy Policy to learn more. By continuing to use the site, you agree to this use of cookies and data.
  • Em Portugal
  • Lista de países
  • Para 7 dias
  • Temperatura da água
  • Mapas de satélite
  • Mapa do tempo
  • Widgets de tempo
  • user-avatar
    Iniciar Sessão

    Previsão horária em Tadzhura

    Hoje, 24 Maio, Sexta-feira

    Tempo Temperatura Precipitação Vento Pressão Humidade
    00:00 +35°C° 0 mm 2 m/s 755 mmHg 55%
    01:00 +33°C° 0 mm 1 m/s 755 mmHg 57%
    02:00 +33°C° 0 mm 1 m/s 755 mmHg 58%
    03:00 +33°C° 0 mm 1 m/s 755 mmHg 59%
    04:00 +32°C° 0 mm 1 m/s 755 mmHg 60%
    05:00 +32°C° 0 mm 1 m/s 755 mmHg 62%
    06:00 +32°C° 0 mm 1 m/s 755 mmHg 63%
    07:00 +33°C° 0 mm 1 m/s 756 mmHg 59%
    08:00 +35°C° 0 mm 2 m/s 756 mmHg 56%
    09:00 +36°C° 0 mm 2 m/s 756 mmHg 51%
    10:00 +37°C° 0 mm 2 m/s 756 mmHg 48%
    11:00 +38°C° 0 mm 3 m/s 756 mmHg 46%
    12:00 +39°C° 0 mm 3 m/s 755 mmHg 43%
    13:00 +39°C° 0 mm 3 m/s 755 mmHg 42%
    14:00 +40°C° 0 mm 4 m/s 754 mmHg 41%
    15:00 +41°C° 0 mm 4 m/s 753 mmHg 40%
    16:00 +40°C° 0 mm 4 m/s 753 mmHg 41%
    17:00 +38°C° 0 mm 3 m/s 753 mmHg 42%
    18:00 +38°C° 0 mm 3 m/s 753 mmHg 43%
    19:00 +37°C° 0 mm 2 m/s 753 mmHg 45%
    20:00 +37°C° 0 mm 2 m/s 754 mmHg 46%
    21:00 +35°C° 0 mm 1 m/s 754 mmHg 47%
    22:00 +36°C° 0 mm 2 m/s 754 mmHg 49%
    23:00 +35°C° 0 mm 2 m/s 754 mmHg 51%

    Amanhã, 25 Maio, Sábado

    Tempo Temperatura Precipitação Vento Pressão Humidade
    00:00 +35°C° 0 mm 2 m/s 755 mmHg 53%
    01:00 +34°C° 0 mm 2 m/s 754 mmHg 56%
    02:00 +33°C° 0 mm 1 m/s 754 mmHg 59%
    03:00 +33°C° 0 mm 1 m/s 754 mmHg 62%
    04:00 +32°C° 0 mm 1 m/s 754 mmHg 63%
    05:00 +32°C° 0 mm 1 m/s 754 mmHg 64%
    06:00 +32°C° 0 mm 1 m/s 755 mmHg 65%
    07:00 +33°C° 0 mm 1 m/s 755 mmHg 60%
    08:00 +35°C° 0 mm 2 m/s 755 mmHg 55%
    09:00 +36°C° 0 mm 2 m/s 756 mmHg 51%
    10:00 +37°C° 0 mm 2 m/s 755 mmHg 46%
    11:00 +38°C° 0 mm 3 m/s 755 mmHg 42%
    12:00 +39°C° 0 mm 3 m/s 755 mmHg 37%
    13:00 +39°C° 0 mm 3 m/s 754 mmHg 36%
    14:00 +40°C° 0 mm 3 m/s 754 mmHg 34%
    15:00 +41°C° 0 mm 4 m/s 753 mmHg 33%
    16:00 +40°C° 0 mm 3 m/s 753 mmHg 34%
    17:00 +39°C° 0 mm 3 m/s 752 mmHg 36%
    18:00 +38°C° 0 mm 3 m/s 752 mmHg 37%
    19:00 +38°C° 0 mm 2 m/s 753 mmHg 39%
    20:00 +36°C° 0 mm 1 m/s 753 mmHg 41%
    21:00 +35°C° 0 mm 1 m/s 753 mmHg 44%
    22:00 +35°C° 0 mm 1 m/s 753 mmHg 44%
    23:00 +35°C° 0 mm 1 m/s 753 mmHg 45%

    Depois de amanhã, 26 Maio, Domingo

    Tempo Temperatura Precipitação Vento Pressão Humidade
    00:00 +34°C° 0 mm 1 m/s 753 mmHg 46%
    01:00 +34°C° 0 mm 1 m/s 753 mmHg 47%
    02:00 +33°C° 0 mm 1 m/s 753 mmHg 49%
    03:00 +33°C° 0 mm 1 m/s 753 mmHg 51%
    04:00 +33°C° 0 mm 1 m/s 753 mmHg 51%
    05:00 +32°C° 0 mm 1 m/s 753 mmHg 51%
    06:00 +32°C° 0 mm 1 m/s 753 mmHg 51%
    07:00 +33°C° 0 mm 1 m/s 754 mmHg 48%
    08:00 +34°C° 0 mm 1 m/s 754 mmHg 44%
    09:00 +37°C° 0 mm 2 m/s 755 mmHg 41%
    10:00 +38°C° 0 mm 2 m/s 754 mmHg 39%
    11:00 +39°C° 0 mm 2 m/s 754 mmHg 37%
    12:00 +40°C° 0 mm 3 m/s 754 mmHg 35%
    13:00 +40°C° 0 mm 3 m/s 753 mmHg 34%
    14:00 +40°C° 0 mm 3 m/s 752 mmHg 33%
    15:00 +42°C° 0 mm 3 m/s 751 mmHg 33%
    16:00 +40°C° 0 mm 3 m/s 751 mmHg 34%
    17:00 +39°C° 0 mm 3 m/s 751 mmHg 35%
    18:00 +39°C° 0 mm 3 m/s 751 mmHg 37%
    19:00 +38°C° 0 mm 2 m/s 752 mmHg 39%
    20:00 +38°C° 0 mm 2 m/s 752 mmHg 41%
    21:00 +36°C° 0 mm 1 m/s 753 mmHg 43%
    22:00 +36°C° 0 mm 1 m/s 753 mmHg 45%
    23:00 +36°C° 0 mm 2 m/s 753 mmHg 46%

    27 Maio, Segunda-feira

    Tempo Temperatura Precipitação Vento Pressão Humidade
    00:00 +36°C° 0 mm 2 m/s 753 mmHg 48%
    01:00 +35°C° 0 mm 2 m/s 752 mmHg 50%
    02:00 +34°C° 0 mm 1 m/s 752 mmHg 52%
    03:00 +33°C° 0 mm 1 m/s 752 mmHg 54%
    04:00 +33°C° 0 mm 1 m/s 752 mmHg 55%
    05:00 +33°C° 0 mm 1 m/s 753 mmHg 56%
    06:00 +33°C° 0 mm 1 m/s 753 mmHg 57%
    07:00 +34°C° 0 mm 1 m/s 753 mmHg 53%
    08:00 +36°C° 0 mm 2 m/s 754 mmHg 48%
    09:00 +37°C° 0 mm 2 m/s 754 mmHg 43%
    10:00 +38°C° 0 mm 2 m/s 754 mmHg 40%
    11:00 +39°C° 0 mm 3 m/s 754 mmHg 37%
    12:00 +40°C° 0 mm 3 m/s 753 mmHg 34%
    13:00 +40°C° 0 mm 3 m/s 752 mmHg 33%
    14:00 +40°C° 0 mm 3 m/s 752 mmHg 32%
    15:00 +42°C° 0 mm 4 m/s 751 mmHg 30%
    16:00 +40°C° 0 mm 3 m/s 751 mmHg 31%
    17:00 +40°C° 0 mm 3 m/s 751 mmHg 32%
    18:00 +39°C° 0 mm 3 m/s 751 mmHg 32%
    19:00 +38°C° 0 mm 2 m/s 752 mmHg 34%
    20:00 +38°C° 0 mm 2 m/s 752 mmHg 36%
    21:00 +36°C° 0 mm 1 m/s 753 mmHg 38%
    22:00 +36°C° 0 mm 1 m/s 753 mmHg 40%
    23:00 +35°C° 0 mm 1 m/s 753 mmHg 42%

    28 Maio, Terça-feira

    Tempo Temperatura Precipitação Vento Pressão Humidade
    00:00 +36°C° 0 mm 2 m/s 753 mmHg 44%
    01:00 +34°C° 0 mm 1 m/s 752 mmHg 46%
    02:00 +34°C° 0 mm 1 m/s 752 mmHg 49%
    03:00 +33°C° 0 mm 1 m/s 752 mmHg 51%
    04:00 +33°C° 0 mm 1 m/s 752 mmHg 52%
    05:00 +33°C° 0 mm 1 m/s 752 mmHg 53%
    06:00 +32°C° 0 mm 1 m/s 753 mmHg 54%
    07:00 +34°C° 0 mm 1 m/s 753 mmHg 49%
    08:00 +36°C° 0 mm 2 m/s 754 mmHg 45%
    09:00 +37°C° 0 mm 2 m/s 754 mmHg 41%
    10:00 +38°C° 0 mm 2 m/s 754 mmHg 40%
    11:00 +39°C° 0 mm 3 m/s 753 mmHg 39%
    12:00 +39°C° 0 mm 3 m/s 753 mmHg 38%
    13:00 +40°C° 0 mm 3 m/s 752 mmHg 38%
    14:00 +40°C° 0 mm 3 m/s 751 mmHg 37%
    15:00 +41°C° 0 mm 4 m/s 751 mmHg 36%
    16:00 +40°C° 0 mm 3 m/s 751 mmHg 37%
    17:00 +39°C° 0 mm 3 m/s 751 mmHg 38%
    18:00 +39°C° 0 mm 3 m/s 751 mmHg 38%
    19:00 +38°C° 0 mm 2 m/s 752 mmHg 40%
    20:00 +38°C° 0 mm 2 m/s 752 mmHg 42%
    21:00 +36°C° 0 mm 1 m/s 753 mmHg 43%
    22:00 +36°C° 0 mm 1 m/s 752 mmHg 45%
    23:00 +36°C° 0 mm 2 m/s 752 mmHg 47%

    29 Maio, Quarta-feira

    Tempo Temperatura Precipitação Vento Pressão Humidade
    00:00 +36°C° 0 mm 2 m/s 752 mmHg 49%
    01:00 +35°C° 0 mm 2 m/s 752 mmHg 51%
    02:00 +34°C° 0 mm 1 m/s 752 mmHg 52%
    03:00 +33°C° 0 mm 1 m/s 751 mmHg 54%
    04:00 +33°C° 0 mm 1 m/s 752 mmHg 55%
    05:00 +33°C° 0 mm 1 m/s 752 mmHg 56%
    06:00 +33°C° 0 mm 1 m/s 753 mmHg 56%
    07:00 +34°C° 0 mm 1 m/s 753 mmHg 52%
    08:00 +35°C° 0 mm 1 m/s 754 mmHg 48%
    09:00 +36°C° 0 mm 1 m/s 754 mmHg 44%
    10:00 +38°C° 0 mm 2 m/s 754 mmHg 41%
    11:00 +39°C° 0 mm 2 m/s 753 mmHg 38%
    12:00 +40°C° 0 mm 3 m/s 753 mmHg 36%
    13:00 +40°C° 0 mm 3 m/s 752 mmHg 35%
    14:00 +42°C° 0 mm 4 m/s 751 mmHg 34%
    15:00 +42°C° 0 mm 4 m/s 751 mmHg 33%
    16:00 +40°C° 0 mm 3 m/s 751 mmHg 35%
    17:00 +40°C° 0 mm 3 m/s 751 mmHg 37%
    18:00 +39°C° 0 mm 3 m/s 751 mmHg 38%
    19:00 +38°C° 0 mm 2 m/s 751 mmHg 41%
    20:00 +38°C° 0 mm 2 m/s 752 mmHg 43%
    21:00 +36°C° 0 mm 1 m/s 753 mmHg 45%
    22:00 +37°C° 0 mm 2 m/s 752 mmHg 46%
    23:00 +36°C° 0 mm 2 m/s 752 mmHg 48%
    Mostrar mais